DAL5018 KJFK-KCLE

Flight info

Callsign DAL5018
Flight time 1h 20m
Altitude 38000
Route DEEZZ6 CANDR J60 PSB UPPRR TRYBE4
Aircraft B739/M-SDE2E3FGHIRWXY/LB1

Departure

Time 2026-05-09 03:52
Airport John F. Kennedy International Airport (KJFK)

Arrival

Time 2026-05-09 05:13
Airport Cleveland Hopkins International Airport (KCLE)
Time Latitude Longitude Altitude Speed Heading
2026-05-09 03:19 40.63623 -73.78136 14 ft 0 kts 83°
2026-05-09 03:40 40.63622 -73.78140 14 ft 2 kts 83°
2026-05-09 03:40 40.63621 -73.78159 14 ft 2 kts 83°
2026-05-09 03:40 40.63619 -73.78178 14 ft 2 kts 83°
2026-05-09 03:41 40.63617 -73.78198 14 ft 2 kts 83°
2026-05-09 03:41 40.63617 -73.78218 14 ft 2 kts 104°
2026-05-09 03:41 40.63622 -73.78236 14 ft 2 kts 124°
2026-05-09 03:41 40.63633 -73.78250 14 ft 2 kts 146°
2026-05-09 03:42 40.63646 -73.78258 14 ft 1 kts 167°
2026-05-09 03:42 40.63653 -73.78259 14 ft 1 kts 174°
2026-05-09 03:42 40.63655 -73.78260 14 ft 0 kts 173°
2026-05-09 03:45 40.63648 -73.78258 14 ft 4 kts 173°
2026-05-09 03:45 40.63593 -73.78251 13 ft 5 kts 179°
2026-05-09 03:45 40.63584 -73.78253 13 ft 2 kts 199°
2026-05-09 03:46 40.63553 -73.78272 12 ft 7 kts 203°
2026-05-09 03:46 40.63508 -73.78253 11 ft 7 kts 127°
2026-05-09 03:46 40.63471 -73.78176 11 ft 16 kts 121°
2026-05-09 03:46 40.63409 -73.78037 11 ft 16 kts 119°
2026-05-09 03:47 40.63355 -73.77908 11 ft 15 kts 120°
2026-05-09 03:47 40.63303 -73.77794 11 ft 13 kts 121°
2026-05-09 03:47 40.63256 -73.77691 11 ft 12 kts 121°
2026-05-09 03:47 40.63205 -73.77578 11 ft 16 kts 120°
2026-05-09 03:48 40.63145 -73.77445 11 ft 16 kts 121°
2026-05-09 03:48 40.63089 -73.77321 11 ft 14 kts 121°
2026-05-09 03:48 40.63038 -73.77210 11 ft 13 kts 120°
2026-05-09 03:48 40.62994 -73.77113 11 ft 10 kts 121°
2026-05-09 03:49 40.62946 -73.77089 11 ft 7 kts 197°
2026-05-09 03:49 40.62908 -73.77116 11 ft 4 kts 212°
2026-05-09 03:49 40.62898 -73.77125 11 ft 1 kts 212°
2026-05-09 03:49 40.62889 -73.77132 11 ft 1 kts 212°
2026-05-09 03:50 40.62867 -73.77150 11 ft 5 kts 211°
2026-05-09 03:50 40.62841 -73.77171 11 ft 3 kts 210°
2026-05-09 03:50 40.62819 -73.77190 11 ft 3 kts 233°
2026-05-09 03:50 40.62820 -73.77217 11 ft 3 kts 294°
2026-05-09 03:51 40.62829 -73.77241 11 ft 2 kts 298°
2026-05-09 03:51 40.62848 -73.77284 11 ft 14 kts 300°
2026-05-09 03:51 40.63022 -73.77667 11 ft 82 kts 300°
2026-05-09 03:51 40.63425 -73.78557 12 ft 139 kts 300°
2026-05-09 03:52 40.64000 -73.79825 14 ft 183 kts 300°
2026-05-09 03:52 40.64658 -73.81246 671 ft 177 kts 300°
2026-05-09 03:52 40.65128 -73.82752 1039 ft 193 kts 272°
2026-05-09 03:52 40.64767 -73.84468 1550 ft 200 kts 236°
2026-05-09 03:53 40.63802 -73.85822 2109 ft 212 kts 219°
2026-05-09 03:53 40.62562 -73.86853 2922 ft 212 kts 211°
2026-05-09 03:53 40.61272 -73.87769 3750 ft 212 kts 210°
2026-05-09 03:53 40.59901 -73.88444 4519 ft 217 kts 195°
2026-05-09 03:54 40.58377 -73.88319 5111 ft 235 kts 167°
2026-05-09 03:54 40.56811 -73.87440 5636 ft 252 kts 159°
2026-05-09 03:54 40.55197 -73.86418 6248 ft 261 kts 160°
2026-05-09 03:54 40.53519 -73.85551 6871 ft 265 kts 171°
2026-05-09 03:55 40.51646 -73.85159 7341 ft 277 kts 181°
2026-05-09 03:55 40.49714 -73.84990 8112 ft 280 kts 182°
2026-05-09 03:55 40.47797 -73.84450 8843 ft 295 kts 162°
2026-05-09 03:55 40.46081 -73.82880 9505 ft 312 kts 136°
2026-05-09 03:56 40.44928 -73.80415 10166 ft 325 kts 111°
2026-05-09 03:56 40.44503 -73.77443 10557 ft 341 kts 91°
2026-05-09 03:56 40.44476 -73.74274 10905 ft 358 kts 88°
2026-05-09 03:56 40.44738 -73.70985 11248 ft 371 kts 72°
2026-05-09 03:57 40.45768 -73.67847 11648 ft 377 kts 52°
2026-05-09 03:57 40.47546 -73.65344 12032 ft 376 kts 29°
2026-05-09 03:57 40.49803 -73.63779 12747 ft 368 kts 14°
2026-05-09 03:57 40.52242 -73.62886 13409 ft 362 kts
2026-05-09 03:58 40.54741 -73.62933 14070 ft 354 kts 345°
2026-05-09 03:58 40.57119 -73.63522 14773 ft 353 kts 341°
2026-05-09 03:58 40.59531 -73.64249 15427 ft 356 kts 340°
2026-05-09 03:58 40.61940 -73.64974 15936 ft 363 kts 340°
2026-05-09 03:59 40.64412 -73.65668 16635 ft 365 kts 341°
2026-05-09 03:59 40.66927 -73.66340 17261 ft 368 kts 341°
2026-05-09 03:59 40.69457 -73.66995 17840 ft 372 kts 342°
2026-05-09 03:59 40.71978 -73.67638 18478 ft 374 kts 341°
2026-05-09 04:00 40.74568 -73.68296 19081 ft 377 kts 341°
2026-05-09 04:00 40.77157 -73.68955 19662 ft 380 kts 341°
2026-05-09 04:00 40.79717 -73.69609 20308 ft 381 kts 341°
2026-05-09 04:00 40.82315 -73.70274 20985 ft 380 kts 340°
2026-05-09 04:01 40.84945 -73.70947 21442 ft 386 kts 340°
2026-05-09 04:01 40.87582 -73.71626 21919 ft 389 kts 340°
2026-05-09 04:01 40.90237 -73.72307 22542 ft 390 kts 340°
2026-05-09 04:01 40.92905 -73.72991 23051 ft 392 kts 340°
2026-05-09 04:02 40.95557 -73.73673 23649 ft 392 kts 339°
2026-05-09 04:02 40.98235 -73.74418 24087 ft 393 kts 337°
2026-05-09 04:02 41.00829 -73.75430 24665 ft 386 kts 331°
2026-05-09 04:02 41.03275 -73.76907 24992 ft 383 kts 322°
2026-05-09 04:03 41.05497 -73.78812 25494 ft 378 kts 316°
2026-05-09 04:03 41.07532 -73.80958 25960 ft 376 kts 313°
2026-05-09 04:03 41.09417 -73.83319 26369 ft 375 kts 307°
2026-05-09 04:03 41.11027 -73.86031 26815 ft 372 kts 300°
2026-05-09 04:04 41.12337 -73.88987 27258 ft 371 kts 294°
2026-05-09 04:04 41.13431 -73.92087 27684 ft 372 kts 290°
2026-05-09 04:04 41.14308 -73.95312 28069 ft 373 kts 286°
2026-05-09 04:04 41.14958 -73.98653 28530 ft 373 kts 282°
2026-05-09 04:05 41.15503 -74.02049 28887 ft 376 kts 282°
2026-05-09 04:05 41.16022 -74.05486 29257 ft 378 kts 281°
2026-05-09 04:05 41.16532 -74.08885 29851 ft 374 kts 281°
2026-05-09 04:05 41.17031 -74.12219 30567 ft 368 kts 281°
2026-05-09 04:06 41.17428 -74.15534 31084 ft 364 kts 278°
2026-05-09 04:06 41.17734 -74.18859 31354 ft 366 kts 277°
2026-05-09 04:06 41.18009 -74.22208 31691 ft 366 kts 277°
2026-05-09 04:06 41.18286 -74.25546 32142 ft 362 kts 277°
2026-05-09 04:07 41.18572 -74.28844 32540 ft 360 kts 277°
2026-05-09 04:07 41.18868 -74.32143 32879 ft 359 kts 277°
2026-05-09 04:07 41.19166 -74.35403 33201 ft 358 kts 277°
2026-05-09 04:07 41.19455 -74.38648 33514 ft 357 kts 276°
2026-05-09 04:08 41.19578 -74.41941 33770 ft 357 kts 270°
2026-05-09 04:08 41.19379 -74.45217 34002 ft 358 kts 264°
2026-05-09 04:08 41.18836 -74.48452 34242 ft 361 kts 258°
2026-05-09 04:08 41.17955 -74.51575 34519 ft 364 kts 251°
2026-05-09 04:09 41.16751 -74.54552 34791 ft 368 kts 246°
2026-05-09 04:09 41.15355 -74.57396 35041 ft 369 kts 243°
2026-05-09 04:09 41.13920 -74.60168 35305 ft 368 kts 244°
2026-05-09 04:09 41.12487 -74.62981 35430 ft 369 kts 244°
2026-05-09 04:10 41.11077 -74.65848 35578 ft 370 kts 244°
2026-05-09 04:10 41.09703 -74.68723 35820 ft 369 kts 244°
2026-05-09 04:10 41.08360 -74.71578 36117 ft 367 kts 245°
2026-05-09 04:10 41.07024 -74.74448 36356 ft 365 kts 245°
2026-05-09 04:11 41.05683 -74.77350 36481 ft 368 kts 245°
2026-05-09 04:11 41.04364 -74.80213 36618 ft 369 kts 245°
2026-05-09 04:11 41.03030 -74.83109 36855 ft 368 kts 245°
2026-05-09 04:11 41.01694 -74.86003 36992 ft 369 kts 245°
2026-05-09 04:12 41.00361 -74.88892 37134 ft 370 kts 244°
2026-05-09 04:12 40.99036 -74.91763 37344 ft 368 kts 245°
2026-05-09 04:12 40.97781 -74.94708 37515 ft 365 kts 248°
2026-05-09 04:12 40.96742 -74.97735 37664 ft 362 kts 253°
2026-05-09 04:13 40.95896 -75.00861 37841 ft 360 kts 255°
2026-05-09 04:13 40.95143 -75.04029 37932 ft 360 kts 257°
2026-05-09 04:13 40.93712 -75.10356 37959 ft 360 kts 257°
2026-05-09 04:14 40.92270 -75.16660 37960 ft 360 kts 256°
2026-05-09 04:14 40.90808 -75.22966 37969 ft 359 kts 256°
2026-05-09 04:15 40.89328 -75.29308 37929 ft 358 kts 256°
2026-05-09 04:15 40.87849 -75.35590 37981 ft 360 kts 256°
2026-05-09 04:16 40.86366 -75.41876 37970 ft 358 kts 256°
2026-05-09 04:16 40.84889 -75.48140 37951 ft 359 kts 257°
2026-05-09 04:17 40.83405 -75.54400 37977 ft 358 kts 257°
2026-05-09 04:17 40.81927 -75.60635 37992 ft 359 kts 256°
2026-05-09 04:18 40.80438 -75.66876 37980 ft 356 kts 256°
2026-05-09 04:18 40.78941 -75.73132 37979 ft 358 kts 256°
2026-05-09 04:19 40.77441 -75.79393 37986 ft 357 kts 256°
2026-05-09 04:19 40.75950 -75.85613 37970 ft 355 kts 256°
2026-05-09 04:20 40.74453 -75.91824 37974 ft 357 kts 256°
2026-05-09 04:20 40.72949 -75.98054 37973 ft 356 kts 256°
2026-05-09 04:21 40.71452 -76.04249 37978 ft 355 kts 256°
2026-05-09 04:22 40.69196 -76.13524 37976 ft 357 kts 256°
2026-05-09 04:22 40.67712 -76.19690 37965 ft 351 kts 258°
2026-05-09 04:23 40.67063 -76.25990 37962 ft 349 kts 272°
2026-05-09 04:23 40.67782 -76.32305 37962 ft 350 kts 278°
2026-05-09 04:24 40.68784 -76.38616 37963 ft 352 kts 278°
2026-05-09 04:24 40.69764 -76.44942 37964 ft 354 kts 278°
2026-05-09 04:25 40.70718 -76.51259 37953 ft 352 kts 278°
2026-05-09 04:25 40.71652 -76.57564 37945 ft 353 kts 278°
2026-05-09 04:26 40.72584 -76.63900 37948 ft 353 kts 279°
2026-05-09 04:26 40.73519 -76.70259 37943 ft 354 kts 278°
2026-05-09 04:27 40.74445 -76.76579 37946 ft 353 kts 277°
2026-05-09 04:27 40.75370 -76.82932 37945 ft 353 kts 277°
2026-05-09 04:28 40.76285 -76.89275 37943 ft 353 kts 277°
2026-05-09 04:28 40.77201 -76.95638 37940 ft 355 kts 278°
2026-05-09 04:29 40.78124 -77.02048 37945 ft 356 kts 278°
2026-05-09 04:29 40.79040 -77.08446 37940 ft 355 kts 278°
2026-05-09 04:30 40.79944 -77.14801 37945 ft 356 kts 278°
2026-05-09 04:30 40.80851 -77.21176 37934 ft 354 kts 277°
2026-05-09 04:31 40.81757 -77.27589 37923 ft 355 kts 278°
2026-05-09 04:31 40.82658 -77.34002 37927 ft 356 kts 277°
2026-05-09 04:32 40.83554 -77.40389 37944 ft 357 kts 277°
2026-05-09 04:32 40.84457 -77.46832 37952 ft 355 kts 278°
2026-05-09 04:33 40.85350 -77.53227 37930 ft 356 kts 278°
2026-05-09 04:33 40.86232 -77.59615 37928 ft 353 kts 278°
2026-05-09 04:34 40.87113 -77.66042 37936 ft 357 kts 277°
2026-05-09 04:34 40.87997 -77.72484 37937 ft 355 kts 277°
2026-05-09 04:35 40.88872 -77.78894 37799 ft 353 kts 277°
2026-05-09 04:35 40.89301 -77.82030 37655 ft 343 kts 277°
2026-05-09 04:35 40.89717 -77.85098 37393 ft 341 kts 278°
2026-05-09 04:35 40.90129 -77.88150 36969 ft 342 kts 277°
2026-05-09 04:36 40.90552 -77.91267 36443 ft 344 kts 277°
2026-05-09 04:36 40.90973 -77.94365 35874 ft 346 kts 277°
2026-05-09 04:36 40.91397 -77.97492 35234 ft 349 kts 278°
2026-05-09 04:36 40.91836 -78.00668 34574 ft 352 kts 279°
2026-05-09 04:37 40.92320 -78.03814 34059 ft 350 kts 280°
2026-05-09 04:37 40.92828 -78.06895 33943 ft 345 kts 279°
2026-05-09 04:37 40.93353 -78.10049 33929 ft 351 kts 281°
2026-05-09 04:38 40.94395 -78.16382 33899 ft 357 kts 279°
2026-05-09 04:38 40.95435 -78.22785 33908 ft 357 kts 280°
2026-05-09 04:39 40.96466 -78.29199 33935 ft 356 kts 279°
2026-05-09 04:39 40.97488 -78.35598 33915 ft 356 kts 280°
2026-05-09 04:40 40.98502 -78.42000 33948 ft 358 kts 280°
2026-05-09 04:40 40.99524 -78.48473 33948 ft 357 kts 279°
2026-05-09 04:41 41.00542 -78.54909 33931 ft 359 kts 280°
2026-05-09 04:41 41.01557 -78.61347 33921 ft 357 kts 280°
2026-05-09 04:42 41.02557 -78.67730 33911 ft 358 kts 279°
2026-05-09 04:42 41.03566 -78.74216 33911 ft 360 kts 279°
2026-05-09 04:43 41.04576 -78.80717 33899 ft 359 kts 279°
2026-05-09 04:43 41.05579 -78.87182 33901 ft 360 kts 279°
2026-05-09 04:44 41.06578 -78.93638 33908 ft 360 kts 279°
2026-05-09 04:44 41.07576 -79.00143 33908 ft 361 kts 279°
2026-05-09 04:45 41.08567 -79.06612 33901 ft 360 kts 279°
2026-05-09 04:45 41.09556 -79.13115 33902 ft 359 kts 279°
2026-05-09 04:46 41.10541 -79.19594 33897 ft 358 kts 279°
2026-05-09 04:46 41.11517 -79.26065 33896 ft 360 kts 279°
2026-05-09 04:47 41.12494 -79.32544 33900 ft 359 kts 279°
2026-05-09 04:47 41.13463 -79.39019 33896 ft 359 kts 280°
2026-05-09 04:48 41.14426 -79.45469 33889 ft 360 kts 280°
2026-05-09 04:48 41.15399 -79.51994 33872 ft 360 kts 279°
2026-05-09 04:49 41.16365 -79.58488 33891 ft 359 kts 279°
2026-05-09 04:49 41.17320 -79.64967 33895 ft 360 kts 279°
2026-05-09 04:50 41.18278 -79.71486 33882 ft 359 kts 279°
2026-05-09 04:50 41.19217 -79.77913 33875 ft 360 kts 279°
2026-05-09 04:51 41.20168 -79.84427 33882 ft 359 kts 279°
2026-05-09 04:51 41.20640 -79.87676 33561 ft 357 kts 279°
2026-05-09 04:51 41.21107 -79.90891 32805 ft 360 kts 279°
2026-05-09 04:51 41.21576 -79.94130 31977 ft 363 kts 279°
2026-05-09 04:52 41.22056 -79.97440 31182 ft 365 kts 279°
2026-05-09 04:52 41.22528 -80.00719 30398 ft 366 kts 279°
2026-05-09 04:52 41.23008 -80.04060 29565 ft 367 kts 279°
2026-05-09 04:52 41.23479 -80.07338 28738 ft 370 kts 278°
2026-05-09 04:53 41.23965 -80.10702 27876 ft 372 kts 279°
2026-05-09 04:53 41.24582 -80.14062 27051 ft 373 kts 284°
2026-05-09 04:53 41.25392 -80.17240 26676 ft 365 kts 287°
2026-05-09 04:53 41.26308 -80.20354 26237 ft 358 kts 288°
2026-05-09 04:54 41.27231 -80.23367 25690 ft 354 kts 288°
2026-05-09 04:54 41.28163 -80.26372 25138 ft 349 kts 288°
2026-05-09 04:54 41.29076 -80.29349 24597 ft 345 kts 289°
2026-05-09 04:54 41.29961 -80.32274 24059 ft 342 kts 288°
2026-05-09 04:55 41.30838 -80.35188 23520 ft 338 kts 288°
2026-05-09 04:55 41.31701 -80.38069 22990 ft 336 kts 288°
2026-05-09 04:55 41.32563 -80.40949 22453 ft 334 kts 288°
2026-05-09 04:55 41.33411 -80.43787 21918 ft 332 kts 289°
2026-05-09 04:56 41.34256 -80.46626 21391 ft 330 kts 288°
2026-05-09 04:56 41.35093 -80.49453 20864 ft 328 kts 288°
2026-05-09 04:56 41.35925 -80.52257 20334 ft 326 kts 289°
2026-05-09 04:56 41.36746 -80.55025 19801 ft 325 kts 288°
2026-05-09 04:57 41.37570 -80.57803 19283 ft 324 kts 288°
2026-05-09 04:57 41.38392 -80.60579 18750 ft 322 kts 289°
2026-05-09 04:57 41.39209 -80.63338 18233 ft 322 kts 289°
2026-05-09 04:57 41.40035 -80.66132 17709 ft 327 kts 288°
2026-05-09 04:58 41.40863 -80.68940 17219 ft 326 kts 288°
2026-05-09 04:58 41.41690 -80.71743 16736 ft 323 kts 288°
2026-05-09 04:58 41.42508 -80.74518 16221 ft 322 kts 288°
2026-05-09 04:58 41.43322 -80.77287 15693 ft 321 kts 288°
2026-05-09 04:59 41.44125 -80.80022 15176 ft 319 kts 288°
2026-05-09 04:59 41.44928 -80.82756 14657 ft 318 kts 288°
2026-05-09 04:59 41.45731 -80.85493 14141 ft 317 kts 288°
2026-05-09 04:59 41.46518 -80.88195 13635 ft 315 kts 288°
2026-05-09 05:00 41.47308 -80.90913 13117 ft 314 kts 288°
2026-05-09 05:00 41.48090 -80.93594 12609 ft 313 kts 288°
2026-05-09 05:00 41.48879 -80.96294 12093 ft 311 kts 288°
2026-05-09 05:00 41.49659 -80.98964 11582 ft 310 kts 288°
2026-05-09 05:01 41.50438 -81.01626 11078 ft 309 kts 288°
2026-05-09 05:01 41.51203 -81.04285 10611 ft 306 kts 287°
2026-05-09 05:01 41.51702 -81.06999 10355 ft 293 kts 274°
2026-05-09 05:01 41.51718 -81.09615 10251 ft 276 kts 265°
2026-05-09 05:02 41.51557 -81.12085 10151 ft 261 kts 263°
2026-05-09 05:02 41.51392 -81.14457 9976 ft 252 kts 264°
2026-05-09 05:02 41.51259 -81.16743 9630 ft 251 kts 265°
2026-05-09 05:02 41.51141 -81.19060 9292 ft 249 kts 265°
2026-05-09 05:03 41.51038 -81.21360 8968 ft 246 kts 266°
2026-05-09 05:03 41.50947 -81.23607 8652 ft 244 kts 266°
2026-05-09 05:03 41.50855 -81.25867 8334 ft 242 kts 266°
2026-05-09 05:03 41.50761 -81.28082 8016 ft 240 kts 266°
2026-05-09 05:04 41.50664 -81.30299 7708 ft 238 kts 266°
2026-05-09 05:04 41.50572 -81.32479 7402 ft 236 kts 266°
2026-05-09 05:04 41.50480 -81.34652 7095 ft 234 kts 265°
2026-05-09 05:04 41.50388 -81.36807 6788 ft 232 kts 265°
2026-05-09 05:05 41.50297 -81.38936 6490 ft 230 kts 266°
2026-05-09 05:05 41.50204 -81.41092 6185 ft 232 kts 266°
2026-05-09 05:05 41.50142 -81.43215 5975 ft 228 kts 269°
2026-05-09 05:05 41.50166 -81.45345 5968 ft 229 kts 271°
2026-05-09 05:06 41.50231 -81.47483 5769 ft 234 kts 271°
2026-05-09 05:06 41.50297 -81.49659 5397 ft 235 kts 271°
2026-05-09 05:06 41.50352 -81.51784 5242 ft 227 kts 271°
2026-05-09 05:06 41.50401 -81.53894 5179 ft 225 kts 271°
2026-05-09 05:07 41.50447 -81.55898 5113 ft 213 kts 271°
2026-05-09 05:07 41.50488 -81.57851 5019 ft 206 kts 270°
2026-05-09 05:07 41.50522 -81.59751 4785 ft 207 kts 270°
2026-05-09 05:07 41.50552 -81.61658 4533 ft 205 kts 270°
2026-05-09 05:08 41.50588 -81.63538 4300 ft 200 kts 270°
2026-05-09 05:08 41.50625 -81.65353 4078 ft 195 kts 269°
2026-05-09 05:08 41.50481 -81.67110 3874 ft 188 kts 254°
2026-05-09 05:08 41.50052 -81.68761 3608 ft 185 kts 249°
2026-05-09 05:09 41.49616 -81.70348 3372 ft 181 kts 251°
2026-05-09 05:09 41.49202 -81.71899 3195 ft 173 kts 245°
2026-05-09 05:09 41.48578 -81.73216 3010 ft 162 kts 236°
2026-05-09 05:09 41.47946 -81.74382 2826 ft 149 kts 236°
2026-05-09 05:10 41.47321 -81.75486 2594 ft 150 kts 233°
2026-05-09 05:10 41.46675 -81.76571 2393 ft 150 kts 232°
2026-05-09 05:10 41.46034 -81.77627 2182 ft 140 kts 231°
2026-05-09 05:10 41.45425 -81.78616 2020 ft 136 kts 231°
2026-05-09 05:11 41.44833 -81.79584 1812 ft 136 kts 231°
2026-05-09 05:11 41.44224 -81.80565 1630 ft 137 kts 230°
2026-05-09 05:11 41.43608 -81.81564 1437 ft 141 kts 230°
2026-05-09 05:11 41.42977 -81.82611 1242 ft 146 kts 228°
2026-05-09 05:12 41.42344 -81.83621 1030 ft 140 kts 228°
2026-05-09 05:12 41.41717 -81.84617 852 ft 140 kts 227°
2026-05-09 05:12 41.41119 -81.85555 775 ft 113 kts 229°
2026-05-09 05:12 41.40760 -81.86126 771 ft 56 kts 230°
2026-05-09 05:13 41.40536 -81.86484 760 ft 39 kts 230°
2026-05-09 05:13 41.40394 -81.86646 753 ft 15 kts 194°
2026-05-09 05:13 41.40337 -81.86655 753 ft 3 kts 176°
2026-05-09 05:13 41.40310 -81.86640 754 ft 6 kts 146°
2026-05-09 05:14 41.40260 -81.86588 756 ft 10 kts 140°
2026-05-09 05:14 41.40214 -81.86536 758 ft 8 kts 140°
2026-05-09 05:14 41.40157 -81.86472 761 ft 12 kts 140°
2026-05-09 05:14 41.40100 -81.86410 764 ft 8 kts 140°
2026-05-09 05:15 41.40060 -81.86367 767 ft 8 kts 140°
2026-05-09 05:15 41.40007 -81.86307 770 ft 8 kts 140°
2026-05-09 05:15 41.39983 -81.86253 771 ft 5 kts 84°
2026-05-09 05:15 41.40009 -81.86190 772 ft 13 kts 50°
2026-05-09 05:16 41.40073 -81.86089 774 ft 13 kts 50°
2026-05-09 05:16 41.40127 -81.86006 776 ft 10 kts 45°
2026-05-09 05:16 41.40205 -81.85953 777 ft 14 kts
2026-05-09 05:16 41.40297 -81.85925 777 ft 13 kts 30°
2026-05-09 05:17 41.40362 -81.85834 776 ft 14 kts 50°
2026-05-09 05:17 41.40435 -81.85718 778 ft 17 kts 50°
2026-05-09 05:17 41.40517 -81.85587 781 ft 17 kts 50°
2026-05-09 05:17 41.40593 -81.85468 781 ft 16 kts 50°
2026-05-09 05:18 41.40660 -81.85360 782 ft 12 kts 50°
2026-05-09 05:18 41.40714 -81.85274 783 ft 12 kts 50°
2026-05-09 05:18 41.40786 -81.85162 783 ft 17 kts 50°
2026-05-09 05:18 41.40859 -81.85046 785 ft 15 kts 50°
2026-05-09 05:19 41.40921 -81.84947 786 ft 13 kts 49°
2026-05-09 05:19 41.40986 -81.84846 786 ft 16 kts 50°
2026-05-09 05:19 41.41055 -81.84735 788 ft 14 kts 50°
2026-05-09 05:19 41.41103 -81.84640 789 ft 9 kts 92°
2026-05-09 05:20 41.41061 -81.84576 789 ft 8 kts 141°
2026-05-09 05:20 41.41000 -81.84510 789 ft 14 kts 139°
2026-05-09 05:20 41.40941 -81.84422 791 ft 10 kts 104°
2026-05-09 05:20 41.40954 -81.84354 792 ft 5 kts 69°
2026-05-09 05:21 41.40960 -81.84289 793 ft 11 kts 93°
2026-05-09 05:21 41.40935 -81.84193 793 ft 7 kts 127°
2026-05-09 05:21 41.40910 -81.84175 793 ft 3 kts 159°
2026-05-09 05:21 41.40888 -81.84158 793 ft 3 kts 141°
2026-05-09 05:22 41.40868 -81.84135 793 ft 1 kts 136°
2026-05-09 05:22 41.40864 -81.84130 793 ft 0 kts 136°